YAOGAN 30 S (45461 NORAD) Tracking and Keplerian Element Data

This shows tracking and keplerian element data for the satellite.

Feedback or suggestion? Click here.




ElementValue
Catalog45461
NameYAOGAN 30 S
Epoch Orbit1509
Epoch Day185.47640526
Epoch Year2020
RAAN328.3601
Inclination35
Eccentricity0.0002356
Argument of Perigee195.081
Mean Anonmoly164.9839
Mean Motion14.89767777
Decay Rate1.17E-06
L11 45461U 20021B 20185.47640526 .00000117 00000-0 14767-4 0 9993
L22 45461 35.0000 328.3601 0002356 195.0810 164.9839 14.89767777 15091

Live tracking and technical data element details for YAOGAN 30 S (NORAD 45461). YAOGAN 30 S can be tracked NOW for your location showing map with azimuth and elevation plus other details from your city location.

Track the satellite on the map from your city or location and see movement details for azimuth, elevation, latitude, longitude, range, height, and movement on the map or in text.







IsCatalogInMostPopularTable: catalog: 45461, numindb: 17
Update: records affected: 1



GetName: 45461 YAOGAN 30 S

Hit Count: updated at: Fri, 03 Jul 2020 17:04:18 GMT